Total_Precipitation_Accumulation
0.40 0.38 0.35 0.31 0.29 0.29 0.27 0.26 0.26 0.26 0.24 0.19 0.15 0.10 0.05 0.04 0.08 0.08 0.04 0.03 0.10 0.20 0.05 0.00 0.00 0.01 0.00 0.00 0.00 0.00 0.00 0.00 0.00 0.03 0.03 0.01 0.01 0.01 0.00 0.00 0.00 0.00 0.02 0.04 0.04 0.07 0.02 0.00 0.00 0.01 0.01 0.00 0.00 0.00
0.34 0.34 0.34 0.36 0.40 0.42 0.44 0.45 0.43 0.39 0.30 0.20 0.17 0.13 0.08 0.05 0.05 0.05 0.06 0.01 0.03 0.12 0.08 0.01 0.00 0.00 0.00 0.00 0.01 0.01 0.01 0.00 0.03 0.10 0.12 0.08 0.06 0.03 0.02 0.02 0.00 0.00 0.00 0.03 0.07 0.02 0.00 0.00 0.01 0.01 0.00 0.00 0.00 0.00
0.33 0.31 0.30 0.33 0.41 0.51 0.56 0.53 0.47 0.41 0.32 0.27 0.24 0.15 0.06 0.04 0.04 0.03 0.02 0.00 0.02 0.03 0.01 0.00 0.00 0.00 0.00 0.00 0.00 0.03 0.01 0.00 0.00 0.01 0.05 0.08 0.08 0.04 0.03 0.02 0.00 0.00 0.00 0.01 0.00 0.00 0.00 0.00 0.00 0.01 0.00 0.00 0.00 0.00
0.36 0.36 0.35 0.34 0.36 0.36 0.34 0.34 0.39 0.39 0.35 0.31 0.22 0.12 0.06 0.03 0.02 0.01 0.02 0.01 0.03 0.04 0.04 0.00 0.00 0.00 0.00 0.00 0.00 0.00 0.00 0.00 0.00 0.01 0.08 0.12 0.10 0.03 0.03 0.01 0.01 0.00 0.00 0.00 0.00 0.00 0.00 0.00 0.00 0.00 0.00 0.00 0.00 0.00
0.29 0.28 0.31 0.36 0.35 0.29 0.24 0.22 0.21 0.19 0.17 0.12 0.08 0.05 0.02 0.01 0.00 0.01 0.01 0.01 0.01 0.01 0.01 0.00 0.00 0.00 0.00 0.00 0.00 0.00 0.00 0.00 0.01 0.02 0.07 0.10 0.07 0.07 0.03 0.02 0.01 0.00 0.00 0.00 0.00 0.00 0.00 0.00 0.00 0.00 0.00 0.00 0.00 0.00
0.19 0.19 0.21 0.30 0.28 0.24 0.21 0.19 0.16 0.12 0.08 0.06 0.03 0.02 0.02 0.01 0.01 0.01 0.01 0.00 0.00 0.01 0.09 0.05 0.00 0.00 0.00 0.00 0.00 0.00 0.00 0.00 0.03 0.07 0.07 0.04 0.03 0.09 0.10 0.02 0.00 0.00 0.00 0.00 0.00 0.00 0.00 0.00 0.00 0.00 0.00 0.00 0.00 0.00
0.13 0.13 0.19 0.27 0.19 0.15 0.15 0.15 0.13 0.08 0.06 0.03 0.02 0.01 0.00 0.00 0.01 0.02 0.02 0.00 0.00 0.02 0.14 0.08 0.01 0.00 0.00 0.00 0.00 0.00 0.00 0.04 0.12 0.17 0.14 0.05 0.04 0.11 0.15 0.06 0.00 0.00 0.00 0.00 0.00 0.00 0.00 0.00 0.00 0.00 0.00 0.00 0.00 0.00
0.10 0.13 0.27 0.26 0.14 0.10 0.10 0.09 0.07 0.04 0.01 0.00 0.00 0.00 0.00 0.00 0.01 0.02 0.01 0.02 0.08 0.12 0.16 0.13 0.02 0.00 0.00 0.01 0.01 0.00 0.00 0.06 0.20 0.16 0.08 0.06 0.09 0.20 0.25 0.01 0.00 0.00 0.00 0.00 0.00 0.00 0.00 0.00 0.00 0.00 0.00 0.00 0.00 0.00
0.14 0.25 0.30 0.21 0.12 0.10 0.08 0.06 0.03 0.01 0.01 0.01 0.00 0.00 0.00 0.00 0.00 0.01 0.01 0.02 0.07 0.15 0.18 0.08 0.01 0.00 0.00 0.03 0.01 0.03 0.03 0.17 0.13 0.12 0.01 0.06 0.12 0.30 0.10 0.01 0.00 0.00 0.00 0.00 0.00 0.00 0.00 0.00 0.00 0.00 0.00 0.00 0.00 0.00
0.36 0.36 0.34 0.18 0.06 0.05 0.04 0.02 0.01 0.01 0.01 0.00 0.00 0.00 0.00 0.01 0.04 0.04 0.08 0.26 0.57 0.84 0.57 0.12 0.01 0.01 0.01 0.05 0.10 0.14 0.34 0.23 0.23 0.08 0.04 0.15 0.07 0.03 0.01 0.00 0.00 0.00 0.00 0.00 0.01 0.02 0.01 0.01 0.00 0.00 0.00 0.00 0.00 0.00
0.42 0.41 0.38 0.13 0.04 0.04 0.02 0.02 0.01 0.01 0.00 0.00 0.00 0.00 0.00 0.00 0.01 0.13 0.21 0.34 0.36 0.39 0.23 0.07 0.05 0.07 0.05 0.08 0.17 0.24 0.37 0.34 0.26 0.02 0.08 0.09 0.10 0.02 0.00 0.00 0.00 0.00 0.00 0.00 0.00 0.01 0.01 0.03 0.03 0.02 0.00 0.00 0.00 0.00
0.42 0.43 0.35 0.07 0.02 0.01 0.01 0.00 0.01 0.01 0.00 0.01 0.02 0.01 0.02 0.06 0.16 0.28 0.20 0.20 0.28 0.26 0.38 0.34 0.12 0.07 0.09 0.17 0.37 0.34 0.23 0.18 0.14 0.09 0.26 0.13 0.07 0.02 0.00 0.00 0.00 0.00 0.00 0.00 0.00 0.02 0.01 0.01 0.01 0.03 0.01 0.00 0.00 0.00
0.39 0.42 0.19 0.06 0.03 0.01 0.01 0.00 0.01 0.01 0.01 0.00 0.01 0.03 0.06 0.11 0.20 0.26 0.17 0.23 0.30 0.21 0.22 0.15 0.10 0.18 0.30 0.41 0.53 0.34 0.38 0.13 0.09 0.14 0.17 0.11 0.05 0.01 0.00 0.00 0.00 0.00 0.00 0.00 0.00 0.01 0.01 0.02 0.01 0.04 0.06 0.02 0.04 0.05
0.38 0.23 0.09 0.04 0.02 0.01 0.00 0.00 0.01 0.01 0.00 0.00 0.03 0.05 0.07 0.12 0.10 0.07 0.08 0.06 0.05 0.03 0.08 0.19 0.18 0.25 0.32 0.53 0.29 0.35 0.14 0.18 0.28 0.26 0.20 0.10 0.06 0.03 0.02 0.02 0.04 0.04 0.03 0.04 0.05 0.07 0.10 0.11 0.07 0.07 0.14 0.14 0.11 0.09
0.23 0.10 0.03 0.02 0.01 0.01 0.00 0.01 0.00 0.00 0.00 0.00 0.04 0.05 0.04 0.02 0.01 0.01 0.01 0.01 0.01 0.05 0.14 0.20 0.28 0.31 0.37 0.44 0.28 0.22 0.23 0.39 0.28 0.16 0.16 0.16 0.16 0.19 0.24 0.21 0.17 0.17 0.20 0.23 0.20 0.28 0.23 0.20 0.19 0.19 0.23 0.19 0.11 0.08
0.07 0.03 0.02 0.02 0.01 0.02 0.01 0.00 0.00 0.00 0.00 0.02 0.03 0.02 0.01 0.00 0.00 0.00 0.01 0.04 0.07 0.11 0.15 0.28 0.32 0.32 0.29 0.29 0.36 0.32 0.24 0.18 0.21 0.27 0.31 0.31 0.28 0.32 0.41 0.42 0.41 0.42 0.47 0.51 0.45 0.50 0.39 0.44 0.54 0.54 0.39 0.36 0.29 0.19
0.01 0.01 0.03 0.02 0.03 0.02 0.00 0.00 0.00 0.00 0.03 0.05 0.03 0.02 0.03 0.02 0.01 0.01 0.04 0.08 0.14 0.20 0.20 0.34 0.34 0.23 0.29 0.30 0.20 0.16 0.21 0.27 0.34 0.33 0.31 0.34 0.32 0.38 0.43 0.41 0.42 0.46 0.46 0.50 0.56 0.62 0.67 0.67 0.63 0.60 0.55 0.67 0.59 0.54
0.00 0.01 0.01 0.02 0.00 0.00 0.00 0.00 0.00 0.02 0.04 0.03 0.04 0.04 0.04 0.05 0.08 0.05 0.06 0.13 0.23 0.23 0.28 0.31 0.16 0.14 0.19 0.21 0.22 0.29 0.32 0.29 0.29 0.29 0.30 0.36 0.38 0.40 0.39 0.39 0.42 0.41 0.39 0.42 0.46 0.50 0.49 0.44 0.43 0.59 0.58 0.58 0.46 0.54
0.00 0.01 0.01 0.00 0.00 0.00 0.00 0.00 0.00 0.01 0.04 0.06 0.06 0.03 0.03 0.04 0.05 0.08 0.09 0.13 0.28 0.33 0.31 0.27 0.23 0.16 0.15 0.26 0.28 0.26 0.25 0.21 0.21 0.25 0.27 0.33 0.37 0.39 0.41 0.41 0.37 0.36 0.36 0.43 0.41 0.49 0.53 0.50 0.57 0.55 0.52 0.37 0.39 0.51
0.03 0.02 0.01 0.00 0.00 0.00 0.00 0.00 0.00 0.00 0.02 0.04 0.03 0.01 0.01 0.01 0.02 0.05 0.09 0.17 0.30 0.31 0.25 0.23 0.29 0.31 0.33 0.37 0.37 0.31 0.27 0.25 0.23 0.22 0.23 0.21 0.23 0.21 0.20 0.20 0.25 0.31 0.29 0.28 0.29 0.31 0.29 0.23 0.29 0.37 0.42 0.40 0.30 0.39
0.00 0.00 0.00 0.00 0.00 0.00 0.00 0.00 0.00 0.01 0.01 0.01 0.01 0.00 0.01 0.00 0.04 0.06 0.07 0.10 0.13 0.18 0.26 0.30 0.36 0.41 0.43 0.38 0.34 0.30 0.30 0.28 0.25 0.21 0.20 0.19 0.18 0.10 0.08 0.07 0.07 0.06 0.07 0.08 0.07 0.10 0.08 0.09 0.12 0.11 0.11 0.11 0.14 0.15
0.00 0.00 0.00 0.00 0.00 0.00 0.00 0.01 0.00 0.00 0.00 0.00 0.00 0.00 0.00 0.00 0.07 0.14 0.10 0.06 0.16 0.24 0.30 0.37 0.42 0.44 0.39 0.33 0.35 0.31 0.33 0.27 0.22 0.19 0.16 0.10 0.04 0.02 0.01 0.00 0.00 0.00 0.00 0.01 0.00 0.01 0.01 0.00 0.00 0.00 0.00 0.00 0.00 0.00
0.00 0.00 0.00 0.00 0.00 0.00 0.00 0.00 0.00 0.00 0.00 0.00 0.00 0.00 0.00 0.00 0.04 0.07 0.11 0.12 0.16 0.23 0.30 0.31 0.33 0.35 0.32 0.31 0.28 0.24 0.21 0.17 0.13 0.10 0.06 0.03 0.02 0.01 0.00 0.00 0.00 0.00 0.00 0.00 0.00 0.00 0.00 0.00 0.00 0.00 0.00 0.00 0.00 0.00
0.00 0.00 0.00 0.00 0.00 0.00 0.00 0.00 0.00 0.00 0.00 0.00 0.00 0.00 0.00 0.00 0.00 0.02 0.07 0.12 0.16 0.19 0.20 0.21 0.20 0.22 0.20 0.18 0.16 0.15 0.12 0.09 0.07 0.05 0.03 0.02 0.01 0.01 0.00 0.00 0.00 0.00 0.01 0.00 0.00 0.00 0.00 0.00 0.00 0.00 0.00 0.00 0.00 0.00
0.00 0.00 0.00 0.00 0.00 0.00 0.00 0.00 0.00 0.00 0.00 0.00 0.00 0.00 0.00 0.00 0.00 0.01 0.05 0.09 0.11 0.12 0.12 0.11 0.11 0.12 0.13 0.14 0.13 0.10 0.08 0.06 0.04 0.03 0.03 0.01 0.00 0.00 0.00 0.00 0.00 0.01 0.00 0.00 0.00 0.00 0.00 0.00 0.00 0.00 0.00 0.01 0.00 0.00
0.00 0.00 0.00 0.00 0.00 0.00 0.00 0.00 0.00 0.00 0.00 0.00 0.00 0.00 0.00 0.00 0.00 0.00 0.02 0.05 0.07 0.08 0.07 0.07 0.07 0.07 0.07 0.07 0.07 0.06 0.04 0.03 0.02 0.02 0.02 0.00 0.00 0.00 0.00 0.00 0.00 0.00 0.01 0.01 0.02 0.01 0.01 0.01 0.00 0.00 0.00 0.01 0.01 0.00
0.00 0.00 0.01 0.01 0.00 0.00 0.00 0.00 0.00 0.00 0.00 0.00 0.00 0.00 0.00 0.00 0.00 0.01 0.03 0.03 0.04 0.03 0.04 0.04 0.05 0.05 0.05 0.05 0.04 0.04 0.03 0.01 0.01 0.01 0.01 0.00 0.00 0.01 0.01 0.01 0.01 0.03 0.03 0.01 0.02 0.02 0.01 0.01 0.01 0.01 0.01 0.01 0.01 0.01
0.00 0.00 0.00 0.01 0.00 0.00 0.00 0.00 0.00 0.00 0.01 0.01 0.00 0.00 0.00 0.00 0.01 0.02 0.03 0.03 0.01 0.00 0.01 0.02 0.02 0.03 0.03 0.03 0.04 0.03 0.02 0.00 0.00 0.00 0.00 0.00 0.00 0.00 0.01 0.01 0.02 0.03 0.01 0.01 0.03 0.02 0.02 0.02 0.02 0.01 0.01 0.00 0.00 0.00
0.00 0.00 0.00 0.00 0.00 0.00 0.00 0.00 0.00 0.01 0.02 0.01 0.00 0.00 0.01 0.01 0.02 0.03 0.04 0.03 0.01 0.00 0.00 0.01 0.02 0.02 0.03 0.03 0.02 0.01 0.00 0.00 0.00 0.00 0.00 0.00 0.00 0.00 0.00 0.00 0.00 0.00 0.00 0.00 0.00 0.01 0.03 0.05 0.03 0.01 0.00 0.00 0.00 0.00
0.01 0.00 0.00 0.00 0.00 0.00 0.01 0.01 0.02 0.03 0.02 0.01 0.00 0.01 0.01 0.02 0.04 0.04 0.03 0.02 0.00 0.00 0.00 0.00 0.01 0.02 0.02 0.02 0.02 0.01 0.01 0.00 0.00 0.00 0.00 0.01 0.01 0.01 0.01 0.01 0.01 0.00 0.00 0.00 0.00 0.00 0.00 0.00 0.00 0.00 0.00 0.00 0.00 0.00
0.00 0.00 0.00 0.00 0.00 0.02 0.02 0.02 0.02 0.03 0.02 0.01 0.00 0.00 0.01 0.02 0.04 0.04 0.02 0.01 0.00 0.00 0.00 0.01 0.01 0.01 0.01 0.01 0.01 0.01 0.02 0.02 0.02 0.02 0.02 0.02 0.01 0.01 0.01 0.01 0.01 0.01 0.01 0.00 0.00 0.00 0.00 0.00 0.00 0.00 0.00 0.00 0.00 0.00
0.00 0.00 0.00 0.00 0.01 0.02 0.02 0.02 0.02 0.02 0.02 0.02 0.03 0.03 0.03 0.03 0.02 0.03 0.03 0.01 0.01 0.00 0.00 0.00 0.01 0.01 0.01 0.00 0.01 0.02 0.02 0.02 0.01 0.04 0.05 0.02 0.02 0.01 0.00 0.00 0.00 0.00 0.00 0.00 0.00 0.00 0.00 0.00 0.00 0.00 0.00 0.00 0.00 0.00
0.00 0.00 0.00 0.00 0.01 0.01 0.01 0.01 0.01 0.02 0.02 0.02 0.03 0.03 0.03 0.03 0.02 0.03 0.03 0.03 0.01 0.00 0.00 0.00 0.00 0.00 0.00 0.00 0.00 0.01 0.01 0.00 0.01 0.03 0.04 0.04 0.02 0.01 0.00 0.00 0.00 0.00 0.00 0.00 0.00 0.00 0.00 0.00 0.00 0.00 0.00 0.00 0.00 0.01